Time,TemperatureF,DewpointF,PressureIn,WindDirection,WindDirectionDegrees,WindSpeedMPH,WindSpeedGustMPH,Humidity,HourlyPrecipIn,Conditions,Clouds,dailyrainin,SoftwareType,DateUTC
2013-03-16 00:03:00,49.0,38.0,30.22,West,266,3.0,5.0,66,-99.99,,,-99.99,,2013-03-16 04:03:00,
2013-03-16 00:13:00,48.0,39.0,30.22,East,95,1.0,2.0,70,-99.99,,,-99.99,,2013-03-16 04:13:00,
2013-03-16 00:23:00,48.0,39.0,30.22,East,95,1.0,2.0,70,-99.99,,,-99.99,,2013-03-16 04:23:00,
2013-03-16 00:33:00,47.0,38.0,30.22,SSW,206,2.0,4.0,71,-99.99,,,-99.99,,2013-03-16 04:33:00,
2013-03-16 00:43:00,45.0,37.0,30.22,SSE,154,3.0,5.0,74,-99.99,,,-99.99,,2013-03-16 04:43:00,
2013-03-16 00:53:00,45.0,37.0,30.22,SSE,154,3.0,5.0,74,-99.99,,,-99.99,,2013-03-16 04:53:00,
2013-03-16 01:03:00,44.0,37.0,30.21,West,268,2.0,2.0,76,-99.99,,,-99.99,,2013-03-16 05:03:00,
2013-03-16 01:12:00,44.0,37.0,30.21,West,268,2.0,2.0,76,-99.99,,,-99.99,,2013-03-16 05:12:00,
2013-03-16 01:22:00,44.0,37.0,30.21,West,268,2.0,2.0,76,-99.99,,,-99.99,,2013-03-16 05:22:00,
2013-03-16 01:32:00,43.0,37.0,30.21,WSW,248,1.0,2.0,79,-99.99,,,-99.99,,2013-03-16 05:32:00,
2013-03-16 01:42:00,42.0,36.0,30.21,South,169,3.0,5.0,81,-99.99,,,-99.99,,2013-03-16 05:42:00,
2013-03-16 01:53:00,42.0,37.0,30.20,SSW,203,2.0,3.0,81,-99.99,,,-99.99,,2013-03-16 05:53:00,
2013-03-16 02:02:00,42.0,37.0,30.20,South,185,1.0,2.0,81,-99.99,,,-99.99,,2013-03-16 06:02:00,
2013-03-16 02:12:00,42.0,37.0,30.20,South,185,1.0,2.0,81,-99.99,,,-99.99,,2013-03-16 06:12:00,
2013-03-16 02:22:00,41.0,36.0,30.20,South,176,2.0,3.0,81,-99.99,,,-99.99,,2013-03-16 06:22:00,
2013-03-16 02:32:00,40.0,36.0,30.19,SW,230,2.0,2.0,83,-99.99,,,-99.99,,2013-03-16 06:32:00,
2013-03-16 02:42:00,41.0,36.0,30.19,WSW,254,1.0,2.0,85,-99.99,,,-99.99,,2013-03-16 06:42:00,
2013-03-16 02:52:00,41.0,36.0,30.18,West,264,1.0,2.0,84,-99.99,,,-99.99,,2013-03-16 06:52:00,
2013-03-16 03:02:00,41.0,36.0,30.18,West,264,1.0,2.0,84,-99.99,,,-99.99,,2013-03-16 07:02:00,
2013-03-16 03:12:00,39.0,35.0,30.18,SSE,166,1.0,2.0,85,-99.99,,,-99.99,,2013-03-16 07:12:00,
2013-03-16 03:22:00,39.0,35.0,30.18,SSE,166,1.0,2.0,85,-99.99,,,-99.99,,2013-03-16 07:22:00,
2013-03-16 03:32:00,39.0,36.0,30.18,SE,130,1.0,1.0,86,-99.99,,,-99.99,,2013-03-16 07:32:00,
2013-03-16 03:42:00,39.0,36.0,30.18,SE,130,1.0,1.0,86,-99.99,,,-99.99,,2013-03-16 07:42:00,
2013-03-16 03:53:00,39.0,35.0,30.18,South,170,1.0,2.0,87,-99.99,,,-99.99,,2013-03-16 07:53:00,
2013-03-16 04:03:00,39.0,36.0,30.17,NE,43,1.0,2.0,87,-99.99,,,-99.99,,2013-03-16 08:03:00,
2013-03-16 04:12:00,39.0,36.0,30.17,NE,43,1.0,2.0,87,-99.99,,,-99.99,,2013-03-16 08:12:00,
2013-03-16 04:23:00,38.0,36.0,30.17,ESE,104,2.0,3.0,89,-99.99,,,-99.99,,2013-03-16 08:23:00,
2013-03-16 04:32:00,38.0,36.0,30.17,ESE,104,2.0,3.0,89,-99.99,,,-99.99,,2013-03-16 08:32:00,
2013-03-16 04:42:00,39.0,36.0,30.17,West,261,1.0,2.0,90,-99.99,,,-99.99,,2013-03-16 08:42:00,
2013-03-16 04:52:00,37.0,35.0,30.17,NW,315,2.0,3.0,91,-99.99,,,-99.99,,2013-03-16 08:52:00,
2013-03-16 05:02:00,37.0,35.0,30.17,NW,323,3.0,4.0,92,-99.99,,,-99.99,,2013-03-16 09:02:00,
2013-03-16 05:12:00,37.0,35.0,30.17,NW,322,2.0,3.0,92,-99.99,,,-99.99,,2013-03-16 09:12:00,
2013-03-16 05:22:00,37.0,35.0,30.17,NW,322,2.0,3.0,92,-99.99,,,-99.99,,2013-03-16 09:22:00,
2013-03-16 05:33:00,36.0,35.0,30.17,South,169,1.0,1.0,93,-99.99,,,-99.99,,2013-03-16 09:33:00,
2013-03-16 05:42:00,36.0,35.0,30.17,South,169,1.0,1.0,93,-99.99,,,-99.99,,2013-03-16 09:42:00,
2013-03-16 05:53:00,37.0,35.0,30.16,WNW,286,1.0,2.0,93,-99.99,,,-99.99,,2013-03-16 09:53:00,
2013-03-16 06:03:00,37.0,35.0,30.16,WSW,250,2.0,2.0,93,-99.99,,,-99.99,,2013-03-16 10:03:00,
2013-03-16 06:12:00,37.0,35.0,30.16,WSW,250,2.0,2.0,93,-99.99,,,-99.99,,2013-03-16 10:12:00,
2013-03-16 06:23:00,36.0,34.0,30.17,East,81,1.0,2.0,93,-99.99,,,-99.99,,2013-03-16 10:23:00,
2013-03-16 06:32:00,37.0,35.0,30.17,WNW,291,2.0,4.0,94,-99.99,,,-99.99,,2013-03-16 10:32:00,
2013-03-16 06:42:00,37.0,35.0,30.17,WNW,291,2.0,4.0,94,-99.99,,,-99.99,,2013-03-16 10:42:00,
2013-03-16 06:53:00,36.0,34.0,30.17,South,173,2.0,4.0,93,-99.99,,,-99.99,,2013-03-16 10:53:00,
2013-03-16 07:03:00,35.0,34.0,30.17,South,187,1.0,2.0,94,-99.99,,,-99.99,,2013-03-16 11:03:00,
2013-03-16 07:12:00,35.0,34.0,30.17,South,187,1.0,2.0,94,-99.99,,,-99.99,,2013-03-16 11:12:00,
2013-03-16 07:22:00,36.0,34.0,30.17,NW,306,1.0,2.0,94,-99.99,,,-99.99,,2013-03-16 11:22:00,
2013-03-16 07:32:00,36.0,34.0,30.18,NW,314,1.0,2.0,94,-99.99,,,-99.99,,2013-03-16 11:32:00,
2013-03-16 07:43:00,36.0,35.0,30.18,SW,215,1.0,1.0,94,-99.99,,,-99.99,,2013-03-16 11:43:00,
2013-03-16 07:53:00,36.0,35.0,30.18,SW,215,1.0,1.0,94,-99.99,,,-99.99,,2013-03-16 11:53:00,
2013-03-16 08:02:00,37.0,36.0,30.19,SW,235,1.0,2.0,95,-99.99,,,-99.99,,2013-03-16 12:02:00,
2013-03-16 08:12:00,37.0,36.0,30.19,SW,235,1.0,2.0,95,-99.99,,,-99.99,,2013-03-16 12:12:00,
2013-03-16 08:22:00,38.0,36.0,30.19,SW,232,2.0,2.0,95,-99.99,,,-99.99,,2013-03-16 12:22:00,
2013-03-16 08:32:00,38.0,36.0,30.19,SW,232,2.0,2.0,95,-99.99,,,-99.99,,2013-03-16 12:32:00,
2013-03-16 08:42:00,37.0,36.0,30.19,SSW,209,2.0,3.0,94,-99.99,,,-99.99,,2013-03-16 12:42:00,
2013-03-16 08:53:00,38.0,37.0,30.20,WSW,240,1.0,2.0,95,-99.99,,,-99.99,,2013-03-16 12:53:00,
2013-03-16 09:02:00,42.0,41.0,30.21,WSW,243,2.0,3.0,95,-99.99,,,-99.99,,2013-03-16 13:02:00,
2013-03-16 09:12:00,42.0,41.0,30.21,WSW,243,2.0,3.0,95,-99.99,,,-99.99,,2013-03-16 13:12:00,
2013-03-16 09:22:00,48.0,46.0,30.21,South,187,1.0,2.0,94,-99.99,,,-99.99,,2013-03-16 13:22:00,
2013-03-16 09:32:00,52.0,50.0,30.21,WSW,242,1.0,2.0,93,-99.99,,,-99.99,,2013-03-16 13:32:00,
2013-03-16 09:42:00,52.0,50.0,30.21,WSW,242,1.0,2.0,93,-99.99,,,-99.99,,2013-03-16 13:42:00,
2013-03-16 09:53:00,55.0,49.0,30.21,WSW,247,3.0,4.0,81,-99.99,,,-99.99,,2013-03-16 13:53:00,
2013-03-16 10:03:00,58.0,48.0,30.22,SW,230,2.0,3.0,68,-99.99,,,-99.99,,2013-03-16 14:03:00,
2013-03-16 10:12:00,58.0,48.0,30.22,SW,230,2.0,3.0,68,-99.99,,,-99.99,,2013-03-16 14:12:00,
2013-03-16 10:22:00,61.0,44.0,30.22,SSW,200,2.0,4.0,52,-99.99,,,-99.99,,2013-03-16 14:22:00,
2013-03-16 10:32:00,61.0,44.0,30.22,SSW,200,2.0,4.0,52,-99.99,,,-99.99,,2013-03-16 14:32:00,
2013-03-16 10:42:00,64.0,-99.9,30.22,South,176,3.0,5.0,41,-99.99,,,-99.99,,2013-03-16 14:42:00,
2013-03-16 10:53:00,66.0,39.0,30.22,SSW,195,4.0,7.0,37,-99.99,,,-99.99,,2013-03-16 14:53:00,
2013-03-16 11:03:00,66.0,40.0,30.22,South,186,5.0,9.0,38,-99.99,,,-99.99,,2013-03-16 15:03:00,
2013-03-16 11:13:00,66.0,40.0,30.22,South,186,5.0,9.0,38,-99.99,,,-99.99,,2013-03-16 15:13:00,
2013-03-16 11:23:00,67.0,42.0,30.22,SSW,198,6.0,10.0,41,-99.99,,,-99.99,,2013-03-16 15:23:00,
2013-03-16 11:33:00,67.0,42.0,30.22,South,186,6.0,11.0,41,-99.99,,,-99.99,,2013-03-16 15:33:00,
2013-03-16 11:43:00,69.0,47.0,30.22,South,177,7.0,10.0,46,-99.99,,,-99.99,,2013-03-16 15:43:00,
2013-03-16 11:53:00,69.0,47.0,30.22,South,177,7.0,10.0,46,-99.99,,,-99.99,,2013-03-16 15:53:00,
2013-03-16 12:03:00,69.0,47.0,30.21,South,169,7.0,12.0,45,-99.99,,,-99.99,,2013-03-16 16:03:00,
2013-03-16 12:13:00,69.0,47.0,30.21,South,169,7.0,12.0,45,-99.99,,,-99.99,,2013-03-16 16:13:00,
2013-03-16 12:23:00,70.0,47.0,30.21,SSW,210,6.0,12.0,42,-99.99,,,-99.99,,2013-03-16 16:23:00,
2013-03-16 12:33:00,70.0,47.0,30.21,SSW,210,6.0,12.0,42,-99.99,,,-99.99,,2013-03-16 16:33:00,
2013-03-16 12:42:00,72.0,47.0,30.21,SSW,200,7.0,14.0,40,-99.99,,,-99.99,,2013-03-16 16:42:00,
2013-03-16 12:53:00,72.0,45.0,30.20,South,180,7.0,11.0,38,-99.99,,,-99.99,,2013-03-16 16:53:00,
2013-03-16 13:03:00,73.0,44.0,30.19,South,188,7.0,11.0,36,-99.99,,,-99.99,,2013-03-16 17:03:00,
2013-03-16 13:13:00,73.0,44.0,30.19,South,188,7.0,11.0,36,-99.99,,,-99.99,,2013-03-16 17:13:00,
2013-03-16 13:23:00,73.0,44.0,30.19,South,188,7.0,11.0,36,-99.99,,,-99.99,,2013-03-16 17:23:00,
2013-03-16 13:33:00,73.0,42.0,30.19,SSW,199,5.0,9.0,32,-99.99,,,-99.99,,2013-03-16 17:33:00,
2013-03-16 13:43:00,74.0,42.0,30.18,SSW,209,5.0,11.0,32,-99.99,,,-99.99,,2013-03-16 17:43:00,
2013-03-16 13:53:00,75.0,43.0,30.18,SSW,211,6.0,11.0,32,-99.99,,,-99.99,,2013-03-16 17:53:00,
2013-03-16 14:03:00,75.0,41.0,30.17,SW,228,5.0,9.0,30,-99.99,,,-99.99,,2013-03-16 18:03:00,
2013-03-16 14:13:00,75.0,41.0,30.17,SW,228,5.0,9.0,30,-99.99,,,-99.99,,2013-03-16 18:13:00,
2013-03-16 14:23:00,75.0,41.0,30.16,SW,230,6.0,11.0,29,-99.99,,,-99.99,,2013-03-16 18:23:00,
2013-03-16 14:33:00,75.0,41.0,30.16,SW,230,6.0,11.0,29,-99.99,,,-99.99,,2013-03-16 18:33:00,
2013-03-16 14:43:00,76.0,41.0,30.15,SSW,193,6.0,10.0,28,-99.99,,,-99.99,,2013-03-16 18:43:00,
2013-03-16 14:53:00,77.0,40.0,30.15,South,191,6.0,10.0,26,-99.99,,,-99.99,,2013-03-16 18:53:00,
2013-03-16 15:02:00,77.0,39.0,30.14,South,189,5.0,11.0,26,-99.99,,,-99.99,,2013-03-16 19:02:00,
2013-03-16 15:12:00,77.0,39.0,30.14,South,189,5.0,11.0,26,-99.99,,,-99.99,,2013-03-16 19:12:00,
2013-03-16 15:22:00,78.0,40.0,30.13,SSW,211,6.0,11.0,25,-99.99,,,-99.99,,2013-03-16 19:22:00,
2013-03-16 15:33:00,77.0,40.0,30.13,SSE,157,6.0,11.0,26,-99.99,,,-99.99,,2013-03-16 19:33:00,
2013-03-16 15:42:00,77.0,40.0,30.13,SSE,157,6.0,11.0,26,-99.99,,,-99.99,,2013-03-16 19:42:00,
2013-03-16 15:53:00,78.0,39.0,30.12,SSE,163,5.0,10.0,25,-99.99,,,-99.99,,2013-03-16 19:53:00,
2013-03-16 16:03:00,78.0,39.0,30.12,SSW,211,5.0,13.0,24,-99.99,,,-99.99,,2013-03-16 20:03:00,
2013-03-16 16:12:00,78.0,39.0,30.12,SSW,211,5.0,13.0,24,-99.99,,,-99.99,,2013-03-16 20:12:00,
2013-03-16 16:22:00,78.0,39.0,30.11,SSE,149,6.0,11.0,24,-99.99,,,-99.99,,2013-03-16 20:22:00,
2013-03-16 16:33:00,78.0,39.0,30.11,SSE,149,6.0,11.0,24,-99.99,,,-99.99,,2013-03-16 20:33:00,
2013-03-16 16:42:00,78.0,39.0,30.11,SSE,156,5.0,8.0,23,-99.99,,,-99.99,,2013-03-16 20:42:00,
2013-03-16 16:53:00,78.0,37.0,30.10,SE,131,3.0,7.0,23,-99.99,,,-99.99,,2013-03-16 20:53:00,
2013-03-16 17:02:00,79.0,37.0,30.10,SSE,159,6.0,12.0,22,-99.99,,,-99.99,,2013-03-16 21:02:00,
2013-03-16 17:12:00,79.0,37.0,30.10,SSE,159,6.0,12.0,22,-99.99,,,-99.99,,2013-03-16 21:12:00,
2013-03-16 17:23:00,79.0,37.0,30.09,South,172,6.0,10.0,22,-99.99,,,-99.99,,2013-03-16 21:23:00,
2013-03-16 17:33:00,79.0,37.0,30.09,South,183,6.0,10.0,22,-99.99,,,-99.99,,2013-03-16 21:33:00,
2013-03-16 17:43:00,79.0,38.0,30.09,SSW,203,5.0,10.0,22,-99.99,,,-99.99,,2013-03-16 21:43:00,
2013-03-16 17:53:00,79.0,38.0,30.09,SSW,211,6.0,9.0,22,-99.99,,,-99.99,,2013-03-16 21:53:00,
2013-03-16 18:03:00,79.0,38.0,30.09,SSW,211,6.0,9.0,22,-99.99,,,-99.99,,2013-03-16 22:03:00,
2013-03-16 18:13:00,79.0,38.0,30.08,SW,231,5.0,7.0,23,-99.99,,,-99.99,,2013-03-16 22:13:00,
2013-03-16 18:23:00,79.0,38.0,30.08,SW,231,5.0,7.0,23,-99.99,,,-99.99,,2013-03-16 22:23:00,
2013-03-16 18:33:00,79.0,38.0,30.08,SW,229,5.0,8.0,23,-99.99,,,-99.99,,2013-03-16 22:33:00,
2013-03-16 18:42:00,79.0,38.0,30.08,SW,229,5.0,8.0,23,-99.99,,,-99.99,,2013-03-16 22:42:00,
2013-03-16 18:53:00,78.0,37.0,30.08,WSW,237,6.0,9.0,22,-99.99,,,-99.99,,2013-03-16 22:53:00,
2013-03-16 19:03:00,78.0,36.0,30.09,WSW,241,4.0,8.0,22,-99.99,,,-99.99,,2013-03-16 23:03:00,
2013-03-16 19:13:00,78.0,36.0,30.09,WSW,241,4.0,8.0,22,-99.99,,,-99.99,,2013-03-16 23:13:00,
2013-03-16 19:23:00,78.0,38.0,30.09,SW,227,4.0,5.0,23,-99.99,,,-99.99,,2013-03-16 23:23:00,
2013-03-16 19:33:00,78.0,38.0,30.09,SW,227,4.0,5.0,23,-99.99,,,-99.99,,2013-03-16 23:33:00,
2013-03-16 19:42:00,76.0,39.0,30.09,SSW,208,3.0,5.0,26,-99.99,,,-99.99,,2013-03-16 23:42:00,
2013-03-16 19:53:00,75.0,40.0,30.09,SW,217,3.0,4.0,28,-99.99,,,-99.99,,2013-03-16 23:53:00,
2013-03-16 20:02:00,72.0,40.0,30.09,SSW,196,3.0,4.0,30,-99.99,,,-99.99,,2013-03-17 00:02:00,
2013-03-16 20:13:00,72.0,40.0,30.09,SSW,196,3.0,4.0,30,-99.99,,,-99.99,,2013-03-17 00:13:00,
2013-03-16 20:23:00,69.0,40.0,30.09,South,185,2.0,3.0,34,-99.99,,,-99.99,,2013-03-17 00:23:00,
2013-03-16 20:33:00,65.0,42.0,30.09,SE,140,3.0,3.0,42,-99.99,,,-99.99,,2013-03-17 00:33:00,
2013-03-16 20:42:00,65.0,42.0,30.09,SE,140,3.0,3.0,42,-99.99,,,-99.99,,2013-03-17 00:42:00,
2013-03-16 20:53:00,61.0,43.0,30.09,West,275,3.0,6.0,51,-99.99,,,-99.99,,2013-03-17 00:53:00,
2013-03-16 21:03:00,61.0,43.0,30.09,West,275,3.0,6.0,51,-99.99,,,-99.99,,2013-03-17 01:03:00,
2013-03-16 21:12:00,63.0,45.0,30.10,WSW,247,6.0,9.0,51,-99.99,,,-99.99,,2013-03-17 01:12:00,
2013-03-16 21:22:00,63.0,45.0,30.10,WSW,247,6.0,9.0,51,-99.99,,,-99.99,,2013-03-17 01:22:00,
2013-03-16 21:32:00,64.0,45.0,30.11,SW,225,5.0,8.0,50,-99.99,,,-99.99,,2013-03-17 01:32:00,
2013-03-16 21:42:00,64.0,45.0,30.11,SW,225,5.0,8.0,50,-99.99,,,-99.99,,2013-03-17 01:42:00,
2013-03-16 21:53:00,61.0,46.0,30.11,SE,140,4.0,6.0,56,-99.99,,,-99.99,,2013-03-17 01:53:00,
2013-03-16 22:03:00,60.0,47.0,30.12,South,190,4.0,6.0,61,-99.99,,,-99.99,,2013-03-17 02:03:00,
2013-03-16 22:13:00,60.0,47.0,30.12,South,190,4.0,6.0,61,-99.99,,,-99.99,,2013-03-17 02:13:00,
2013-03-16 22:23:00,61.0,47.0,30.12,WSW,244,5.0,9.0,58,-99.99,,,-99.99,,2013-03-17 02:23:00,
2013-03-16 22:33:00,61.0,47.0,30.12,WSW,244,5.0,9.0,58,-99.99,,,-99.99,,2013-03-17 02:33:00,
2013-03-16 22:43:00,60.0,46.0,30.14,SW,214,2.0,4.0,59,-99.99,,,-99.99,,2013-03-17 02:43:00,
2013-03-16 22:53:00,60.0,46.0,30.14,SW,214,2.0,4.0,59,-99.99,,,-99.99,,2013-03-17 02:53:00,
2013-03-16 23:03:00,59.0,46.0,30.14,WSW,247,3.0,4.0,61,-99.99,,,-99.99,,2013-03-17 03:03:00,
2013-03-16 23:12:00,59.0,46.0,30.14,WSW,247,3.0,4.0,61,-99.99,,,-99.99,,2013-03-17 03:12:00,
2013-03-16 23:23:00,59.0,47.0,30.14,WSW,250,3.0,4.0,63,-99.99,,,-99.99,,2013-03-17 03:23:00,
2013-03-16 23:34:00,57.0,46.0,30.14,West,268,2.0,3.0,66,-99.99,,,-99.99,,2013-03-17 03:34:00,
2013-03-16 23:43:00,54.0,45.0,30.14,WNW,290,2.0,3.0,71,-99.99,,,-99.99,,2013-03-17 03:43:00,
2013-03-16 23:53:00,54.0,45.0,30.14,WNW,290,2.0,3.0,71,-99.99,,,-99.99,,2013-03-17 03:53:00,